Simultaneous Nadir Overpasses (SNOs) Predictions

Prediction of SNOs between GOES-16 and LANDSAT-8 Satellite Orbit:

Table of predicted SNOs for the next 14.0 days since TLE Epoch: 12/21/2024
Index Date Time (GOES-16) GOES-16 Lat,Lon LANDSAT-8 Lat,Lon Distance(km) Time Diff (sec)
1 12/21/2024 15:18:44 -0.01, -75.21 0.35, -76.87 189.67 80
2 12/23/2024 15:09:14 -0.01, -75.22 -0.31, -73.93 147.89 80
3 12/24/2024 03:30:38 0.01, -75.19 -0.81, -79.11 445.75 80
4 12/25/2024 14:57:03 -0.01, -75.24 -0.93, -70.97 485.87 80
5 12/26/2024 03:18:27 0.01, -75.21 -0.19, -76.16 107.68 80
6 12/28/2024 03:03:36 0.01, -75.23 0.45, -73.21 230.89 80
7 12/28/2024 15:24:50 -0.01, -75.27 0.68, -78.36 351.14 80
8 12/30/2024 15:12:40 -0.00, -75.30 0.01, -75.41 12.13 80
9 01/01/2025 15:03:08 0.00, -75.32 -0.61, -72.45 327.34 80
10 01/02/2025 03:24:31 -0.00, -75.30 -0.49, -77.64 265.55 80
